Regional Weather Roundup
Issued by NWS Little Rock, AR

Home | Current Version | Previous Version | Graphics & Text | Print | Product List | Glossary On
Versions: 1 2 3 4 5 6 7 8 9 10 11 12 13 14 15 16 17 18 19 20 21 22 23 24 25 26 27 28 29 30 31 32 33 34 35 36 37 38 39 40 41 42 43 44 45 46 47 48 49 50
000
ASUS44 KLZK 012305
RWRLZK

WEATHER ROUNDUP FOR ARKANSAS
NATIONAL WEATHER SERVICE LITTLE ROCK AR
600 PM CDT SAT AUG 01 2015

NOTE: "FAIR" INDICATES FEW OR NO CLOUDS BELOW 12,000 FEET WITH NO
SIGNIFICANT WEATHER AND/OR OBSTRUCTIONS TO VISIBILITY.

ARZ001-003-010-029-020000-
NORTHWEST ARKANSAS

CITY           SKY/WX    TMP DP  RH WIND       PRES   REMARKS
FAYETTEVILLE   MOSUNNY   87  68  52 SW5       30.02F HX  90
FORT SMITH     SUNNY     94  57  28 NE9       29.96F HX  92
HARRISON       SUNNY     89  61  38 SW3       30.03F HX  89
BENTONVILLE    PTSUNNY   90  66  45 SW7       30.03F HX  92
ROGERS         SUNNY     88  67  49 W5        30.02F HX  91
SILOAM SPGS    PTSUNNY   90  64  43 W7          N/A  HX  91
HIGHFILL       MOSUNNY   85  72  65 W3        30.02F HX  91
SPRINGDALE     MOSUNNY   88  66  48 W7        30.04F HX  90
$$

ARZ004-005-016-020000-
NORTH CENTRAL ARKANSAS

CITY           SKY/WX    TMP DP  RH WIND       PRES   REMARKS
BATESVILLE     SUNNY     91  68  46 W6        29.97F HX  95
FLIPPIN        SUNNY     91  61  35 CALM      29.99S HX  91
MTN HOME       SUNNY     90  60  36 CALM      30.00F HX  89
$$

ARZ040-041-020000-
WEST CENTRAL ARKANSAS

CITY           SKY/WX    TMP DP  RH WIND       PRES   REMARKS
MENA           SUNNY     97  43  15 NE5       30.00F HX  92
MOUNT IDA      MOSUNNY   97  56  25 N3        29.96F HX  95
$$

ARZ009-017-025-026-028-020000-
NORTHEAST ARKANSAS

CITY           SKY/WX    TMP DP  RH WIND       PRES   REMARKS
JONESBORO      SUNNY     90  64  42 N5        29.96F HX  91
NEWPORT        SUNNY     92  68  45 SE3       29.97F HX  96
WALNUT RIDGE   SUNNY     91  61  35 SW3       29.95F HX  91
BLYTHEVILLE    SUNNY     91  73  55 NW3       29.96F HX  99
$$

ARZ022-023-033-042-044-020000-
CENTRAL ARKANSAS

CITY           SKY/WX    TMP DP  RH WIND       PRES   REMARKS
LITTLE ROCK    PTSUNNY   94  59  31 S8        29.96F HX  93
N LITTLE ROCK  PTSUNNY   93  63  36 SE7       29.96F HX  94
JACKSONVILLE   SUNNY     96  62  32 SE8       29.96F HX  96
SEARCY         SUNNY     95  63  34 NE8       29.97F HX  96
HOT SPRINGS    SUNNY     96  57  27 SE8       29.96F HX  95
RUSSELLVILLE   MOSUNNY   95  58  28 SW6       29.96S HX  94
$$

ARZ036-020000-
EAST ARKANSAS

CITY           SKY/WX    TMP DP  RH WIND       PRES   REMARKS
WEST MEMPHIS   SUNNY     93  64  38 N7        29.95F HX  94
$$

ARZ050-053-066-070-073-020000-
SOUTHWEST ARKANSAS

CITY           SKY/WX    TMP DP  RH WIND       PRES   REMARKS
ARKADELPHIA    FAIR      98  61  29 VRB5      29.95F HX  98
CAMDEN         SUNNY     95  54  24 NE6       29.95F HX  93
TEXARKANA      SUNNY     94  58  29 CALM      29.96F HX  93
EL DORADO      SUNNY     95  56  26 NE9       29.95F HX  93
DE QUEEN       SUNNY     94  61  33 E3        29.95F HX  94
$$

ARZ056-057-069-020000-
SOUTHEAST ARKANSAS

CITY           SKY/WX    TMP DP  RH WIND       PRES   REMARKS
PINE BLUFF     SUNNY     93  62  35 E6        29.96F HX  93
STUTTGART      SUNNY     91  64  40 MISG      29.97F HX  93
MONTICELLO     SUNNY     94  59  31 E7        29.96F HX  93

$$




USA.gov is the U.S. government's official web portal to all federal, state and local government web resources and services.